{"data":{"norad_id":65624,"epoch":"2026-05-25T04:03:15.139008Z","epoch_age_seconds":54226,"freshness":"FRESH","line1":"1 65624U 25210C   26145.16892522  .00027732  00000+0  64397-3 0  9998","line2":"2 65624  53.1613 309.4762 0001263  97.3183 262.7966 15.42180993 39392","mean_motion":15.42180993,"eccentricity":0.0001263,"inclination_deg":53.1613,"raan_deg":309.4762,"arg_perigee_deg":97.3183,"mean_anomaly_deg":262.7966,"bstar":0.00064397,"rev_number":3939,"period_min":93.374254159285,"perigee_km":438.8126916801,"apogee_km":440.53487068343,"semimajor_km":6817.8107811818,"source":"CELESTRAK","updated_at":"2026-05-25T13:38:20.858003Z"}}